Content
SEND FEEDBACK

Daily
Averages
Monthly
Summary
United States of America

MAYS LANDING, NEW JERSEY


Home > North America > United States > New Jersey
Elevation: 10 feet     Latitude: 39 27N     Longitude: 074 44W

WEATHER
 
SELECT A DAY
Number of Records: 206,291;   Date Range: 1/1/95 - 8/28/14
 
SHARE

PRINT THIS DATA

[ ← Previous Day ]
WEATHER ALMANAC - FEBRUARY 13, 2013
[ Next Day → ]
[ °C ]   °F
Weather ElementAverageHighLow
Temperature34.4 °F44.1 °F (12:54 pm)24.1 °F (5:54 am)
Dewpoint28.2 °F33.1 °F (6:54 pm)19.9 °F (2:54 am)
Humidity79.2 %92 % (8:12 pm)53 % (1:25 pm)
Barometer29.78 in29.99 in (1:54 am)29.65 in (8:25 pm)
Wind Speed7.9 mph13.8 mph (9:54 pm)
Wind Gust19.6 mph (8:25 pm)
Weather ElementAverage
Visibility7.1 mi
Wind DirectionE (92.3 °)

Weather ElementTotal
Precipitation0.58 in
Heating Degree Days30.9 (Base 65)
Averaged from 30 records on February 13, 2013
WEATHER CONDITIONS BREAKOUT
WIND DIRECTION BREAKOUT
WEATHER BY HOUR - FEBRUARY 13, 2013
[ °C ]   °F
Local TimeTemperatureDewpointHumidityBarometerVisibilityWind DirectionWind SpeedGust SpeedPrecipitationEventsConditions
1:54 AM30.0 °F24.1 °F79 %29.99 in10.0 miCalmClear
2:54 AM25.0 °F19.9 °F81 %29.96 in9.0 miCalmClear
3:54 AM25.0 °F19.9 °F81 %29.94 in9.0 miCalmClear
4:54 AM27.0 °F21.9 °F81 %29.94 in9.0 miCalmClear
5:54 AM24.1 °F19.9 °F84 %29.94 in9.0 miCalmClear
6:54 AM24.1 °F21.0 °F88 %29.94 in7.0 miCalmClear
7:54 AM24.1 °F21.0 °F88 %29.92 in6.0 miCalmClear
8:54 AM36.0 °F27.0 °F70 %29.91 in9.0 miENE (60°)4.6 mphClear
9:54 AM39.0 °F26.1 °F60 %29.92 in10.0 miESE (120°)5.8 mphOvercast
10:54 AM41.0 °F27.0 °F57 %29.89 in10.0 miEast (90°)8.1 mphMostly Cloudy
11:54 AM39.0 °F28.9 °F67 %29.85 in10.0 miEast (90°)9.2 mphMostly Cloudy
12:54 PM44.1 °F28.9 °F55 %29.82 in10.0 miEast (100°)9.2 mphClear
1:25 PM44.1 °F28.0 °F53 %29.79 in10.0 miESE (110°)11.5 mphMostly Cloudy
1:54 PM44.1 °F30.0 °F58 %29.77 in10.0 miESE (110°)12.7 mphOvercast
2:54 PM42.1 °F30.0 °F62 %29.75 in10.0 miENE (70°)11.5 mphOvercast
3:54 PM39.9 °F30.0 °F68 %29.72 in10.0 miENE (70°)11.5 mphOvercast
4:54 PM39.9 °F30.9 °F70 %29.69 in10.0 miNE (50°)11.5 mphOvercast
5:54 PM37.0 °F32.0 °F82 %29.67 in10.0 miNE (40°)11.5 mph0.01 inRainLight Rain
6:54 PM36.0 °F33.1 °F89 %29.67 in4.0 miNNE (20°)11.5 mph18.4 mph0.04 inRainRain
7:54 PM36.0 °F33.1 °F89 %29.67 in8.0 miNorth (10°)8.1 mph0.03 inRainLight Rain
8:12 PM35.1 °F33.1 °F92 %29.66 in5.0 miNNE (20°)9.2 mph0.02 inRainRain
8:25 PM35.1 °F33.1 °F92 %29.65 in4.0 miNorth (10°)11.5 mph19.6 mph0.04 inRainRain
8:45 PM35.1 °F32.0 °F89 %29.65 in7.0 miNorth (10°)10.4 mph0.06 inRainLight Rain
8:54 PM34.0 °F32.0 °F92 %29.65 in6.0 miNorth (10°)11.5 mph0.06 inOvercast
9:54 PM33.1 °F30.9 °F92 %29.66 in4.0 miNorth (360°)13.8 mph0.05 inSnowLight Snow
10:07 PM33.1 °F30.9 °F92 %29.65 in2.0 miNorth (360°)13.8 mph0.03 inSnowLight Snow
10:20 PM33.1 °F30.0 °F89 %29.65 in1.5 miNorth (10°)11.5 mph0.05 inSnowLight Snow
10:54 PM32.0 °F30.0 °F92 %29.67 in1.5 miNorth (360°)9.2 mph0.08 inSnowLight Snow
11:16 PM32.0 °F30.0 °F92 %29.67 in1.2 miNorth (350°)10.4 mph0.02 inSnowLight Snow
11:54 PM32.0 °F30.0 °F92 %29.71 in1.0 miNNW (340°)10.4 mph0.09 inSnowLight Snow
Hourly data recorded from KACY, located miles away from Mays Landing, New Jersey







STORIES FROM OUR PARTNERS